Вернуться в каталог

PEGASUS R/B

АктивенPO
NORAD 31305·ROCKET BODY·🇺🇸 United States

Запущен Apr 25, 2007 с Vandenberg Space Force Base

Loading…

Ближайшие Пролёты (ближайшие 24 часа)

TLE

СвежийSource: Space-Track

Эпоха: Sep 14, 2026, 09:50 UTC

1 31305U 07015B   26257.41014910  .00006913  00000-0  24299-3 0  9995
2 31305  97.9374 232.4159 0011635  18.6648 341.5015 15.29668668 62697

Отслеживайте PEGASUS R/B в реальном времени с AllMySat

Download on the App Store